KG5ELE Weather Reports


time (UTC)temp
C
wind
direction
speed
KPH
gust
KPH
rain 1hr
cm
rain 24hr
cm
rain mn
cm
humidity
%
barometer
mb
20260506120005 3 0 0.0 0.0 0.00 0.10 0.00 84 1010.9
20260506114505 3 0 0.0 0.0 0.00 0.10 0.00 84 1010.8
20260506113005 3 0 0.0 0.0 0.00 0.10 0.00 82 1010.4
20260506111505 4 0 0.0 0.0 0.00 0.10 0.00 81 1010.2
20260506110026 4 0 0.0 0.0 0.00 0.10 0.00 80 1009.9
20260506104505 5 0 0.0 0.0 0.00 0.10 0.00 79 1009.6
20260506103005 5 0 0.0 0.0 0.00 0.10 0.00 79 1009.5
20260506101526 5 0 0.0 0.0 0.00 0.10 0.00 77 1009.3
20260506100026 5 0 0.0 0.0 0.00 0.10 0.00 76 1009.1
20260506094505 6 228 0.0 1.6 0.00 0.10 0.00 76 1008.9
20260506093005 6 0 0.0 0.0 0.00 0.10 0.00 73 1008.9
20260506091505 7 0 0.0 0.0 0.00 0.10 0.00 71 1008.8
20260506090005 7 0 0.0 0.0 0.00 0.10 0.00 68 1008.8
20260506084526 8 0 0.0 0.0 0.00 0.10 0.00 67 1008.7
20260506083005 8 271 0.0 3.2 0.00 0.10 0.00 65 1008.7
20260506081526 9 0 0.0 0.0 0.00 0.10 0.00 66 1008.8
20260506071504 10 113 0.0 1.6 0.00 0.10 0.00 75 1008.4
20260506061504 10 0 0.0 0.0 0.00 0.10 0.00 74 1007.7
20260506044504 11 74 0.0 1.6 0.00 0.10 0.10 67 1007.1
20260506043004 12 278 0.0 4.8 0.00 0.10 0.10 66 1006.8
20260506041504 12 293 1.6 8.0 0.00 0.10 0.10 65 1006.4
20260506040025 12 335 1.6 12.9 0.00 0.10 0.10 62 1006.1
20260506034504 12 294 3.2 11.3 0.00 0.10 0.10 61 1005.9
20260506033005 12 296 3.2 12.9 0.00 0.10 0.10 60 1005.3
20260506031504 12 282 3.2 11.3 0.00 0.10 0.10 70 1004.9
20260506030004 12 0 0.0 0.0 0.00 0.10 0.10 68 1004.3
20260506024504 12 0 0.0 0.0 0.00 0.10 0.10 66 1003.8
20260506023025 12 0 0.0 0.0 0.00 0.10 0.10 64 1003.5
20260506021525 13 0 0.0 0.0 0.00 0.10 0.10 63 1003.3
20260506020004 13 0 0.0 0.0 0.00 0.10 0.10 60 1002.5
20260506014504 15 0 0.0 0.0 0.00 0.10 0.10 58 1002.3
20260506013025 15 0 0.0 0.0 0.00 0.10 0.10 54 1002.3
20260506011504 16 307 0.0 4.8 0.00 0.10 0.10 52 1002.3
20260506010004 15 0 0.0 0.0 0.00 0.10 0.10 55 1002.2
20260506004504 16 0 0.0 0.0 0.00 0.10 0.10 52 1001.9
20260506003004 16 0 0.0 0.0 0.00 0.10 0.10 50 1001.9
20260506001504 17 278 0.0 6.4 0.00 0.10 0.10 49 1001.5
20260505234504 16 279 1.6 4.8 0.00 0.10 0.10 50 1001.8
20260505233004 16 253 1.6 6.4 0.00 0.10 0.10 51 1001.8
20260505231504 16 273 1.6 6.4 0.00 0.10 0.10 53 1001.9
20260505230004 15 281 1.6 8.0 0.00 0.10 0.10 56 1002.0
20260505223025 15 267 6.4 16.1 0.00 0.10 0.10 55 1002.1
20260505221504 15 264 6.4 16.1 0.00 0.10 0.10 59 1002.3
20260505220004 15 278 3.2 22.5 0.00 0.10 0.10 64 1002.3
20260505214504 15 256 4.8 16.1 0.00 0.10 0.10 66 1002.8
20260505213004 16 281 3.2 11.3 0.00 0.10 0.10 56 1002.4
20260505211503 17 299 1.6 9.7 0.00 0.10 0.10 53 1002.0
20260505210004 18 265 3.2 11.3 0.00 0.10 0.10 51 1001.9
20260505204504 18 345 1.6 6.4 0.00 0.10 0.10 51 1001.9
20260505203003 17 228 1.6 8.0 0.00 0.10 0.10 52 1002.9
20260505201504 17 270 1.6 8.0 0.00 0.10 0.10 50 1002.6
20260505200024 18 265 1.6 9.7 0.00 0.10 0.10 52 1002.6
20260505194504 17 286 0.0 8.0 0.00 0.10 0.10 57 1002.5
20260505193004 16 264 4.8 12.9 0.00 0.10 0.10 63 1002.7
20260505191503 15 254 4.8 16.1 0.00 0.10 0.10 68 1003.0
20260505190004 15 244 4.8 14.5 0.00 0.10 0.10 68 1003.0
20260505184503 16 248 6.4 11.3 0.00 0.10 0.10 62 1003.0
20260505183003 16 14 0.0 3.2 0.00 0.10 0.10 53 1002.8
20260505181503 16 264 1.6 8.0 0.00 0.10 0.10 54 1003.0
20260505180024 16 43 0.0 3.2 0.00 0.10 0.10 56 1003.1
20260505174503 15 49 1.6 8.0 0.00 0.10 0.10 59 1003.2
20260505173003 15 35 1.6 9.7 0.00 0.10 0.10 61 1003.2
20260505170003 12 51 1.6 6.4 0.03 0.10 0.10 74 1003.7
20260505164503 12 45 0.0 3.2 0.05 0.10 0.10 78 1003.7
20260505161524 11 16 0.0 4.8 0.08 0.08 0.08 81 1003.7
20260505153003 12 351 0.0 6.4 0.03 0.03 0.03 70 1003.6
20260505151503 13 292 0.0 4.8 0.00 0.00 0.00 70 1003.7
20260505124505 15 134 0.0 1.6 0.00 0.00 0.00 42 1003.3
20260505123005 15 0 0.0 0.0 0.00 0.00 0.00 43 1003.4
20260505121505 14 103 1.6 8.0 0.00 0.00 0.00 44 1003.2